RH
10 8 6 6 9 11 10 9 12 12 10 11 9 10 10 7 7 7 12 13 13 14 14 16 18 16 13 14 23 32 31 32 37 39 50 54 51 53 54 55 52 45 43 41 36 35 35 34 34 34 33 33 33 34 35 35 36 37 37 36 34 32 33 33 34 37 38 36 33 31 30 30 30 30 31 34 36 37 36 35 35 34 33 32 32 29 26 26 22 18 18 18 19 19 19 20 20
9 7 6 8 11 11 11 10 13 15 13 12 8 8 9 9 9 10 12 14 18 17 16 19 18 18 16 15 22 31 32 34 37 41 45 46 47 50 51 54 51 44 40 38 35 35 36 35 34 33 32 32 32 33 34 35 36 37 37 37 35 32 33 33 35 38 41 39 35 33 32 32 33 33 33 35 38 39 39 38 36 36 35 31 29 27 26 27 24 20 18 19 19 19 20 20 20
10 11 10 9 9 11 14 14 13 14 17 15 10 9 7 9 12 12 12 15 22 24 23 23 20 19 20 17 21 31 34 36 38 40 44 44 45 46 46 47 49 45 40 38 37 36 36 34 33 32 32 32 32 33 33 35 36 38 37 37 36 34 33 34 36 41 42 40 36 34 34 34 36 37 36 36 39 42 42 43 43 41 39 36 31 26 24 25 24 22 21 20 19 19 20 21 21
11 13 11 8 8 11 14 16 14 12 16 15 12 12 8 9 11 12 13 17 25 30 27 23 25 24 26 30 33 40 43 44 44 43 44 44 43 44 42 44 47 45 40 39 36 35 34 33 32 31 32 32 33 33 34 35 36 37 37 38 37 35 35 35 37 43 43 39 36 36 35 34 37 38 38 37 39 44 47 47 49 47 42 38 33 27 23 22 23 24 24 21 19 19 20 21 21
10 12 11 9 10 12 13 14 14 12 12 12 13 12 9 9 12 12 12 15 20 25 24 23 29 28 30 39 42 49 54 52 50 47 46 43 42 44 42 42 46 45 40 37 35 34 33 32 30 29 30 31 33 34 34 35 36 37 38 38 38 37 36 36 40 43 42 38 37 38 36 35 36 38 40 39 39 43 47 47 48 46 41 36 34 30 26 24 25 27 26 22 19 20 20 21 21
9 10 10 8 11 14 15 13 12 11 9 9 12 12 10 10 12 12 10 11 13 15 17 22 30 31 38 46 46 51 56 54 53 51 49 47 45 47 46 43 44 44 39 34 32 30 30 29 27 27 29 31 33 34 35 37 38 38 39 39 39 39 38 40 42 42 40 39 37 37 36 36 38 39 41 41 40 41 42 43 44 44 41 38 37 35 32 30 28 29 27 23 20 20 20 20 21
8 9 9 8 10 14 16 15 11 12 9 8 11 11 11 11 11 10 11 10 11 11 12 18 25 33 45 49 48 49 51 53 53 51 49 49 46 46 47 43 42 40 36 34 30 27 28 28 27 29 32 34 35 36 38 39 40 40 40 40 40 40 42 43 42 40 42 41 39 38 37 39 42 42 43 45 43 43 44 45 45 47 45 42 39 39 38 34 30 28 26 24 22 21 21 21 21
7 10 11 9 10 12 13 12 10 11 11 10 10 11 10 10 10 9 10 9 9 10 9 13 19 32 46 46 49 50 51 54 54 52 49 48 46 43 42 40 41 39 36 36 32 27 28 29 31 32 33 34 35 37 39 40 41 41 41 41 42 43 43 42 39 40 43 44 43 43 45 47 50 49 48 50 48 45 49 50 49 50 49 47 43 42 42 38 33 28 26 24 24 23 21 21 22
7 11 13 10 9 10 11 10 9 9 10 11 10 11 9 8 9 9 9 9 9 10 11 15 16 29 45 46 49 51 54 58 55 53 50 47 44 40 39 39 40 40 38 37 33 29 29 31 32 33 34 34 36 39 41 42 41 42 44 45 46 47 45 41 40 42 47 52 51 54 57 59 60 58 56 53 49 47 50 51 49 50 50 49 45 41 41 40 36 31 27 24 24 25 23 23 23
8 10 12 12 10 10 11 10 9 7 8 9 11 10 9 8 8 9 9 8 9 9 12 18 22 32 41 46 52 55 55 55 53 53 50 45 42 38 39 41 42 41 38 37 35 31 31 33 33 34 36 35 37 40 42 43 43 45 47 49 52 55 52 47 45 47 55 62 61 63 66 66 68 67 63 55 48 45 48 50 48 48 47 44 41 40 39 38 35 31 28 26 25 25 25 24 24
9 11 12 14 13 12 10 10 10 9 8 9 11 9 7 8 9 9 8 9 8 8 10 14 31 41 40 46 55 58 55 53 52 51 49 45 43 39 39 41 42 42 40 40 38 33 33 35 36 37 38 37 38 42 43 43 47 51 52 55 59 63 60 54 56 58 66 71 67 68 68 70 73 71 67 58 50 43 43 47 45 44 44 41 38 38 37 35 34 31 30 30 29 26 26 25 24
11 12 12 12 13 13 9 10 11 12 10 9 11 8 8 9 8 9 8 9 7 9 10 12 30 40 43 51 57 58 57 56 54 51 50 46 44 41 39 41 42 43 41 40 38 34 35 36 38 39 38 37 39 42 43 45 51 55 58 62 65 64 59 61 71 73 75 77 73 70 67 70 74 75 70 60 54 45 42 44 42 41 41 40 37 36 35 35 35 34 32 32 31 28 26 27 26
12 11 13 12 11 12 10 9 12 14 10 10 11 9 9 9 9 11 8 10 9 9 11 16 29 35 42 52 57 60 60 57 54 51 50 47 44 41 38 41 42 42 41 39 38 36 35 36 37 37 36 37 40 44 47 50 55 57 62 64 63 60 58 69 83 80 79 81 77 73 67 68 73 76 71 60 55 50 45 44 43 42 42 40 37 37 37 36 35 35 34 32 30 29 28 27 28
13 11 15 14 11 10 9 9 12 13 10 10 11 9 10 10 12 15 13 15 14 12 14 22 30 33 38 48 58 63 63 58 52 50 49 48 45 41 40 42 42 40 40 40 39 38 36 37 37 36 38 40 43 47 51 54 55 57 61 61 58 56 61 78 86 82 83 83 80 75 68 69 73 76 70 61 56 52 49 48 47 46 46 44 40 42 41 37 33 33 33 30 29 29 29 28 29
13 12 14 17 15 13 10 9 11 12 11 12 10 10 11 10 12 14 13 16 18 15 20 31 33 35 39 47 60 63 65 60 52 52 51 49 46 42 41 40 41 40 41 41 39 38 37 38 38 39 42 44 43 45 50 53 54 56 58 57 56 57 68 80 80 80 85 84 82 79 70 71 76 76 67 59 56 54 52 52 51 52 52 49 48 49 46 39 33 30 28 27 27 28 29 30 30
12 12 14 16 16 14 12 10 11 12 12 11 11 12 11 11 13 13 15 16 19 18 22 36 39 41 45 50 61 64 65 59 52 53 50 48 47 43 40 38 40 42 44 43 40 38 37 38 40 44 46 46 45 45 49 53 56 58 58 57 57 62 72 79 78 81 87 85 84 80 72 73 76 72 63 59 58 57 57 55 54 57 55 52 55 55 48 40 34 30 28 28 28 27 29 31 33
11 11 14 15 15 15 13 11 13 12 11 12 12 13 12 13 14 15 21 19 23 30 31 42 46 47 48 52 62 65 63 57 54 52 46 46 44 40 38 38 40 43 46 43 40 39 38 40 42 47 50 50 52 51 50 53 56 60 61 59 59 64 70 77 80 81 87 86 82 77 75 74 68 63 61 61 62 61 61 58 59 59 57 57 59 53 45 40 37 35 33 32 30 29 30 32 35
12 11 12 13 14 15 13 13 14 12 13 15 13 13 12 12 17 20 22 20 24 35 41 48 55 56 52 54 63 65 61 56 55 50 45 43 39 37 37 37 38 40 43 42 41 42 42 44 45 50 54 54 53 52 52 54 55 57 60 58 60 65 67 76 84 85 85 83 79 77 78 73 63 62 64 64 64 65 63 62 62 61 59 60 55 47 44 43 41 40 38 37 36 34 34 34 34
12 12 12 11 12 14 14 14 14 14 15 17 14 14 13 11 20 25 25 25 24 31 43 49 55 63 60 58 63 64 59 54 52 47 41 40 36 36 36 36 38 38 40 42 43 45 46 48 50 52 53 53 53 52 54 57 56 55 57 56 61 66 67 74 86 89 85 82 80 80 78 73 68 68 69 69 69 68 65 65 63 60 58 56 50 48 47 46 44 43 42 43 42 41 41 39 37
13 12 13 11 11 12 16 16 16 16 16 16 15 13 13 11 16 23 26 31 32 34 46 50 50 62 66 63 63 61 56 52 49 42 39 38 35 35 35 36 38 38 39 40 41 43 46 52 56 55 52 52 54 55 58 59 57 56 56 59 62 65 68 74 84 88 84 82 82 80 79 76 73 73 74 74 71 67 66 66 63 59 56 53 53 53 51 49 47 46 47 48 47 49 51 49 46
14 13 12 11 11 13 15 17 18 17 16 15 15 14 11 11 12 18 24 33 41 39 45 51 51 60 67 66 63 56 53 52 48 42 38 36 35 34 34 35 36 37 37 38 42 44 48 56 59 57 55 56 57 59 61 61 60 59 58 61 62 63 68 75 83 85 83 83 82 80 81 79 77 78 78 76 71 67 67 66 63 59 57 57 56 56 57 57 53 51 51 54 56 58 58 56 55
15 12 11 11 12 15 17 20 19 16 15 13 15 15 11 12 11 13 21 30 41 41 45 52 52 58 62 63 62 55 54 54 48 44 39 35 35 33 33 35 35 35 36 38 42 45 49 56 58 56 56 58 59 60 61 60 60 59 60 61 61 63 69 75 79 79 80 83 81 82 83 81 81 81 79 76 72 69 68 65 63 62 62 63 61 60 65 63 60 60 62 64 64 62 62 62 60
15 14 12 11 12 15 18 22 20 14 14 13 13 14 11 12 12 12 16 26 37 39 45 51 54 59 58 60 59 54 56 55 48 46 41 36 35 33 34 35 34 35 36 39 42 43 45 50 56 59 60 60 61 60 61 62 61 60 61 62 63 66 72 77 78 76 77 80 80 82 83 82 82 80 77 74 72 70 67 66 67 67 67 67 65 65 69 67 65 67 72 75 68 61 63 64 63
16 15 13 12 12 14 15 19 18 14 14 13 12 12 11 11 12 13 13 23 36 38 43 49 55 62 60 58 55 51 54 52 48 46 40 36 36 34 34 35 35 36 39 41 42 42 41 46 56 62 63 62 62 64 64 64 64 64 65 66 67 69 72 77 81 78 74 76 80 81 81 80 78 74 73 72 71 69 67 67 67 67 66 66 66 66 65 63 63 64 69 71 65 62 64 63 64
16 15 14 14 14 14 15 16 15 15 14 12 11 10 12 11 11 14 13 21 30 32 40 48 50 57 59 58 54 49 49 49 45 43 38 37 37 33 33 34 35 39 42 41 42 42 44 50 61 62 62 65 68 71 68 66 66 67 67 68 70 71 72 77 83 83 79 79 80 79 77 76 72 71 70 69 68 69 67 66 63 61 63 64 62 61 58 56 59 62 65 68 68 68 66 65 66
16 16 15 14 14 16 16 15 14 15 14 12 11 10 10 10 10 14 14 16 20 23 33 41 41 47 54 56 56 51 46 44 41 40 38 38 36 32 32 32 34 41 44 43 43 44 46 55 67 69 69 74 74 72 70 69 69 69 69 68 70 75 76 80 86 85 82 82 78 73 72 71 69 68 68 67 67 68 68 64 61 61 61 62 60 58 56 56 60 65 70 72 71 70 67 69 68
16 16 16 15 15 15 15 15 15 16 14 12 11 10 9 10 10 12 13 13 16 20 25 30 34 40 47 50 52 50 45 41 38 41 40 36 34 31 32 31 34 43 46 48 49 47 50 61 72 76 78 77 70 66 66 69 69 69 71 69 74 82 84 85 86 83 80 79 76 72 70 68 67 67 66 66 64 66 66 62 60 59 57 57 57 57 57 59 63 68 72 72 69 70 71 70 67
15 16 16 17 16 16 15 14 16 16 13 12 11 11 10 11 11 11 13 12 15 19 21 25 31 34 38 43 47 47 43 39 40 45 41 35 34 31 33 31 33 43 49 56 58 56 63 72 74 74 77 74 67 65 66 68 69 71 73 73 80 86 84 82 81 77 75 74 71 68 66 66 65 64 62 61 61 62 61 60 58 55 53 54 55 56 56 60 65 67 70 68 66 69 72 70 67
16 16 17 18 16 15 14 13 15 16 13 12 12 11 11 11 11 12 12 12 16 18 18 22 29 34 34 37 42 44 43 39 40 45 40 35 33 32 33 31 35 46 52 60 66 67 72 78 76 73 72 70 68 67 68 68 69 73 75 74 79 80 79 82 80 77 73 69 65 62 63 63 60 59 60 58 57 57 56 56 56 53 52 53 53 53 54 56 60 62 66 65 63 67 70 69 70
16 16 17 17 15 14 13 13 14 14 13 12 13 12 12 11 10 11 11 13 18 21 19 20 26 33 36 36 38 41 41 38 39 42 38 34 32 33 33 31 41 53 57 63 70 71 76 82 78 71 68 70 69 67 67 66 65 68 72 74 77 78 81 83 80 77 71 63 60 59 59 59 57 54 55 54 52 52 52 53 55 53 49 49 50 51 51 52 53 56 62 63 62 65 67 69 71
15 16 16 15 15 13 12 13 13 13 13 12 13 13 12 12 11 11 11 13 17 20 20 20 23 33 40 40 41 42 40 39 39 36 33 32 32 33 32 34 46 54 55 63 69 70 75 81 78 71 70 71 69 66 67 66 65 66 67 73 77 79 82 80 75 71 64 60 58 56 54 53 53 50 50 52 51 51 51 54 56 52 47 47 50 51 51 51 51 55 60 63 65 66 66 69 71
15 16 15 14 13 12 11 11 12 12 12 12 13 13 12 12 13 12 10 13 17 19 20 20 23 33 41 43 42 40 39 41 38 32 31 31 32 32 30 39 51 56 60 66 74 75 71 71 71 72 71 67 65 66 68 67 67 68 66 70 72 72 74 74 71 65 59 57 53 51 52 51 50 49 48 50 51 52 53 54 53 49 47 48 51 52 52 50 52 56 58 61 66 66 65 67 68
15 15 14 13 12 10 10 10 11 12 11 12 12 11 12 12 13 14 13 15 18 20 21 21 24 31 41 48 47 41 38 39 36 32 31 30 32 30 33 48 57 61 65 65 75 79 71 68 66 68 69 66 65 68 70 68 67 68 66 65 65 64 63 63 65 62 59 55 47 45 46 46 48 49 50 51 53 55 56 54 50 48 47 49 51 51 51 52 53 55 57 58 61 63 64 64 64
15 15 14 12 12 12 10 10 14 15 12 13 13 11 13 11 13 17 16 15 19 22 23 23 24 29 40 50 52 46 40 39 35 32 30 30 32 33 40 55 58 61 68 69 78 78 69 68 66 66 70 71 70 72 72 69 67 67 65 62 58 57 57 60 63 63 61 56 49 44 41 41 43 45 48 50 51 52 52 49 46 47 47 47 49 49 49 53 54 54 55 56 57 58 59 58 60
17 19 17 13 12 14 13 12 15 16 15 15 16 14 12 11 15 20 17 15 21 24 23 24 25 28 37 45 50 48 41 37 34 32 32 32 35 41 49 56 57 63 74 79 78 73 65 64 64 66 71 74 75 77 75 70 67 65 62 59 54 53 57 62 63 61 60 58 55 51 46 43 41 39 42 43 44 46 44 41 39 42 45 46 48 49 50 50 50 51 55 55 54 52 52 54 56
24 26 25 19 14 16 16 13 13 16 16 16 18 17 13 12 15 21 22 19 22 26 23 23 25 26 32 40 48 47 39 34 34 33 33 38 45 52 56 60 62 64 69 72 68 66 65 64 63 63 67 75 77 77 75 68 63 59 55 55 54 55 58 60 60 58 56 57 58 56 53 51 46 41 41 41 42 41 41 43 42 40 41 43 46 49 50 49 49 50 52 51 49 49 50 52 53
29 30 30 26 20 19 18 14 13 16 17 18 18 17 15 13 14 19 26 25 23 25 24 23 24 25 30 39 46 46 38 35 35 35 39 49 57 59 62 63 60 56 56 59 60 63 66 66 66 65 69 77 76 73 70 63 58 55 54 54 56 59 60 59 58 55 52 52 52 50 50 52 50 46 44 44 41 39 40 46 48 42 39 41 42 44 47 49 48 47 45 45 46 49 49 48 50
27 31 31 27 21 20 19 16 17 19 21 22 21 19 15 14 16 17 23 28 26 23 24 24 23 27 34 39 42 42 38 34 34 41 49 58 63 63 65 61 54 54 56 55 57 63 68 71 72 72 75 78 75 71 66 60 58 57 58 59 61 62 59 55 53 50 45 44 42 39 38 41 41 41 39 37 36 36 37 39 40 39 37 38 40 42 45 45 43 41 40 42 45 48 47 46 49
24 29 30 27 23 20 20 20 21 24 24 24 25 23 18 17 18 15 18 26 28 26 25 23 24 32 38 38 39 40 38 37 42 52 58 62 66 61 57 54 53 57 59 58 61 66 69 72 74 75 77 77 77 76 68 60 57 58 59 60 61 61 57 52 49 45 40 38 38 35 35 35 33 32 30 30 33 33 32 31 32 32 32 35 38 39 40 39 40 40 38 40 41 42 47 50 49
22 26 25 25 27 23 21 24 25 29 29 26 26 26 25 26 22 16 20 26 29 31 29 24 25 35 40 37 38 42 44 49 55 59 60 59 60 57 51 52 54 56 58 59 61 62 63 65 69 76 80 80 81 78 68 60 58 59 59 57 58 60 56 50 45 42 41 40 39 37 37 37 35 33 31 32 32 28 29 31 30 30 30 32 33 34 36 37 39 40 38 39 40 39 45 52 51
19 22 22 23 28 25 22 24 27 31 31 27 26 27 31 32 25 22 26 28 30 32 30 26 29 38 43 41 43 47 53 61 64 62 60 55 52 53 53 53 54 55 56 55 54 55 59 63 66 72 80 84 83 76 66 62 59 58 57 54 56 58 52 47 44 42 41 40 39 38 38 38 37 35 34 35 33 27 28 29 30 32 31 30 31 32 34 35 36 39 40 41 40 39 43 49 53
17 18 17 18 25 28 26 26 29 31 31 31 28 26 30 28 26 29 30 30 32 33 30 29 35 42 46 51 53 53 56 61 66 65 61 57 54 55 54 53 54 53 52 52 51 53 58 63 67 71 76 80 82 76 68 64 60 57 54 49 51 53 51 48 45 42 41 41 41 41 41 39 38 38 37 37 36 32 29 27 30 34 29 28 33 34 35 36 38 40 43 42 42 43 42 46 52
17 17 15 14 19 27 31 31 32 31 34 39 32 25 27 28 29 31 31 34 38 37 34 34 43 49 51 58 58 58 62 62 61 62 59 59 59 57 54 52 52 51 54 56 53 53 56 59 64 68 70 73 77 75 67 63 61 58 53 47 48 53 54 52 47 43 43 43 44 44 42 40 39 39 37 36 35 35 34 31 31 31 26 26 32 35 38 41 42 42 41 41 44 46 42 42 49
17 18 17 15 15 22 30 33 34 35 36 39 35 27 24 26 32 32 31 37 43 41 37 36 45 51 54 58 55 58 68 62 55 57 60 62 62 58 54 51 49 49 53 56 54 54 57 58 60 63 67 70 71 70 65 61 59 58 55 51 53 55 55 53 49 48 45 42 43 43 41 42 41 40 39 38 36 35 35 34 31 28 25 26 30 36 40 42 42 40 38 38 40 43 41 41 46
18 19 23 22 16 19 28 31 34 39 39 38 37 33 28 25 30 34 35 40 43 40 37 39 44 48 52 56 56 62 65 54 53 61 63 64 64 60 55 51 48 47 50 52 51 53 57 58 59 60 66 69 69 68 66 61 56 55 56 57 57 56 55 53 51 50 45 41 43 44 45 45 44 43 41 40 37 34 32 31 30 28 26 26 28 34 38 36 35 33 31 32 34 37 39 40 43
19 20 26 28 19 17 25 27 28 35 39 37 37 38 37 31 30 35 37 39 41 39 41 45 48 52 55 55 56 63 62 53 54 62 64 63 64 61 56 53 49 46 49 49 47 49 54 58 58 58 62 66 67 68 64 59 56 54 55 58 57 55 53 52 52 49 45 44 46 46 45 44 44 44 44 42 38 34 33 33 33 33 31 29 28 30 32 30 28 26 25 26 31 33 33 34 37
21 22 25 29 25 20 21 22 26 35 38 34 34 40 42 36 34 38 41 42 43 44 47 50 51 55 59 56 54 56 57 53 53 59 62 62 62 60 56 54 52 50 50 47 43 45 50 55 59 57 57 59 62 63 60 58 59 59 57 59 59 55 52 53 54 48 44 46 47 45 46 45 43 44 46 44 36 31 32 34 36 35 33 31 29 29 31 31 31 30 27 26 27 29 28 28 29
22 26 27 31 32 27 23 23 28 34 35 30 32 39 39 37 39 42 41 44 45 45 48 50 52 56 57 57 57 55 53 53 53 57 60 60 60 59 56 54 54 53 51 48 43 41 44 48 53 53 53 55 54 56 58 60 61 59 55 55 57 53 50 52 53 47 45 47 47 48 48 45 42 42 44 40 32 27 28 31 33 33 32 31 30 29 29 29 29 29 27 24 22 22 21 22 23
21 25 27 33 39 36 30 30 30 30 28 27 32 38 41 41 46 50 49 46 44 44 47 49 52 57 58 56 54 52 53 55 55 56 60 63 60 57 57 57 57 55 52 48 45 44 42 43 47 49 51 53 52 51 54 56 56 53 50 51 53 50 47 49 50 47 49 50 51 50 46 44 43 43 43 39 33 28 26 26 27 26 27 27 28 27 26 25 24 22 21 19 18 17 15 16 18
21 22 24 30 41 44 37 34 35 32 29 28 30 34 43 48 49 52 54 49 45 46 49 52 55 57 55 51 48 49 51 55 59 62 66 67 61 57 58 57 56 57 55 49 47 46 43 43 47 51 51 51 50 50 49 48 50 51 50 51 52 47 42 44 46 47 51 54 53 49 45 45 46 44 42 39 35 29 25 24 24 23 23 22 25 26 26 25 21 17 15 14 15 15 14 14 15
21 20 23 29 40 46 44 43 44 42 38 36 36 35 42 52 52 51 52 50 48 48 47 50 55 55 52 48 48 50 53 55 60 69 73 69 64 60 59 59 58 58 56 53 49 45 44 45 47 50 53 51 49 49 49 48 49 51 51 52 51 45 41 45 48 50 53 56 54 50 47 47 47 44 40 37 34 30 26 25 24 24 22 22 23 24 23 22 19 15 14 14 14 15 15 14 15
27 19 19 29 40 42 44 47 48 48 44 40 44 44 43 50 54 54 55 52 50 50 51 54 57 56 54 53 54 55 59 59 59 67 75 73 67 64 63 65 64 60 56 54 50 45 43 44 47 51 54 52 49 48 49 50 50 52 54 53 50 46 44 49 53 54 56 56 54 53 51 49 47 43 39 36 34 32 28 27 26 25 24 23 22 21 20 19 18 17 17 17 16 16 16 15 15
38 29 22 29 39 41 45 48 44 45 46 41 44 49 49 51 53 54 52 48 49 53 54 56 60 60 57 59 61 58 59 59 52 56 68 69 64 65 66 66 64 60 57 55 52 47 43 43 46 50 53 54 53 50 50 52 52 55 57 55 52 49 47 53 56 57 58 55 55 56 54 51 47 41 39 37 38 36 32 29 27 27 26 26 24 22 22 22 22 21 20 19 19 18 17 17 17
37 38 33 34 41 42 45 49 47 48 49 42 42 47 47 47 50 52 51 49 51 53 52 54 59 63 62 61 61 58 57 59 55 57 63 64 60 60 62 64 64 62 61 59 56 51 46 45 46 48 53 58 58 56 56 56 56 57 58 58 56 53 52 58 60 60 59 56 56 58 56 52 46 40 40 41 42 42 38 32 31 31 30 30 29 26 25 25 25 25 25 23 21 21 20 20 19
30 38 37 35 42 47 47 46 50 55 53 44 40 40 39 42 45 48 52 53 55 57 57 56 58 64 68 66 63 61 63 67 70 68 65 62 61 56 54 61 64 63 63 60 58 56 51 52 53 52 54 57 58 61 65 66 64 62 61 61 62 59 61 64 62 60 60 57 57 59 56 52 44 40 41 43 44 45 41 37 35 35 34 34 32 30 30 29 29 30 30 27 25 24 23 23 22
30 37 36 36 42 46 46 44 44 48 50 46 39 36 41 46 47 46 49 52 54 57 61 62 61 65 71 70 65 60 60 64 68 67 61 59 59 54 51 57 59 60 62 61 61 61 57 60 64 60 56 57 58 60 65 68 68 66 64 63 62 63 69 69 63 59 60 58 58 58 55 50 44 41 42 43 44 44 43 41 40 39 39 38 36 35 35 35 36 39 37 34 34 35 32 29 29
34 35 34 38 42 42 43 44 41 39 43 46 42 43 51 55 51 48 50 53 53 54 59 61 61 64 65 63 60 55 54 57 58 57 55 53 52 49 51 55 56 58 61 61 63 64 61 64 70 68 64 65 63 60 61 64 66 67 67 66 64 65 71 74 68 62 60 61 61 57 53 49 44 43 43 41 42 44 45 45 45 44 43 41 40 39 40 42 44 47 44 42 44 47 44 39 37
39 38 33 36 41 44 44 44 42 40 41 43 44 51 59 60 56 54 54 57 58 57 58 58 57 59 58 56 56 53 51 52 51 48 47 47 47 49 53 57 59 61 62 62 63 65 65 65 68 70 71 72 70 66 65 66 65 67 69 68 65 65 70 77 76 69 65 65 64 58 52 48 46 44 42 40 42 46 49 49 47 47 45 43 42 42 45 50 51 49 47 48 51 53 51 48 47